JST830 YSSY-YBBN

Flight info

Callsign JST830
Flight time N/A
Altitude 39000
Route OLSEM1/34R OLSEM Y193 BANDA H252 BN
Aircraft A320/M-SDE3FGHIRWY/LB1

Departure

Time N/A
Airport Sydney Kingsford Smith International Airport (YSSY)

Arrival

Time 2026-05-08 00:54
Airport Brisbane International Airport (YBBN)
Time Latitude Longitude Altitude Speed Heading
2026-05-08 00:07 -31.54085 152.34521 39158 ft 445 kts
2026-05-08 00:07 -31.51132 152.35433 39168 ft 445 kts
2026-05-08 00:08 -31.45146 152.37283 39179 ft 444 kts
2026-05-08 00:08 -31.39171 152.39134 39179 ft 444 kts
2026-05-08 00:09 -31.33200 152.40978 39183 ft 444 kts
2026-05-08 00:09 -31.27235 152.42827 39173 ft 443 kts
2026-05-08 00:10 -31.21327 152.44651 39179 ft 441 kts
2026-05-08 00:10 -31.15392 152.46473 39188 ft 440 kts
2026-05-08 00:11 -31.09474 152.48290 39191 ft 440 kts
2026-05-08 00:11 -31.03553 152.50105 39177 ft 439 kts
2026-05-08 00:12 -30.97649 152.51916 39194 ft 438 kts
2026-05-08 00:12 -30.91796 152.53712 39195 ft 438 kts
2026-05-08 00:13 -30.85906 152.55513 39162 ft 437 kts
2026-05-08 00:13 -30.80046 152.57303 39170 ft 429 kts
2026-05-08 00:14 -30.74290 152.59256 39171 ft 436 kts
2026-05-08 00:14 -30.68511 152.61402 39170 ft 441 kts
2026-05-08 00:15 -30.62675 152.63593 39162 ft 440 kts
2026-05-08 00:15 -30.56839 152.65724 39169 ft 440 kts
2026-05-08 00:16 -30.50987 152.67831 39177 ft 439 kts
2026-05-08 00:16 -30.45145 152.69934 39185 ft 440 kts
2026-05-08 00:17 -30.39299 152.72042 39187 ft 440 kts
2026-05-08 00:17 -30.33493 152.74139 39189 ft 440 kts
2026-05-08 00:18 -30.27651 152.76239 39188 ft 440 kts
2026-05-08 00:18 -30.21810 152.78332 39193 ft 440 kts
2026-05-08 00:19 -30.15973 152.80424 39168 ft 439 kts
2026-05-08 00:19 -30.10176 152.82500 39184 ft 438 kts
2026-05-08 00:20 -30.04354 152.84590 39191 ft 438 kts
2026-05-08 00:20 -29.98533 152.86679 39198 ft 438 kts
2026-05-08 00:21 -29.92721 152.88758 39208 ft 437 kts
2026-05-08 00:21 -29.86914 152.90824 39201 ft 436 kts
2026-05-08 00:22 -29.81149 152.92871 39204 ft 436 kts
2026-05-08 00:22 -29.75351 152.94937 39208 ft 436 kts
2026-05-08 00:23 -29.69553 152.96996 39213 ft 436 kts
2026-05-08 00:23 -29.64735 152.98711 39183 ft 436 kts
2026-05-08 00:24 -29.58005 153.01104 39210 ft 435 kts
2026-05-08 00:24 -29.52218 153.03152 39217 ft 435 kts
2026-05-08 00:25 -29.47392 153.04849 39081 ft 442 kts
2026-05-08 00:25 -29.43416 153.06229 38725 ft 449 kts
2026-05-08 00:25 -29.41439 153.06924 38532 ft 449 kts
2026-05-08 00:26 -29.38455 153.07981 38269 ft 448 kts
2026-05-08 00:26 -29.35489 153.09040 38003 ft 446 kts
2026-05-08 00:26 -29.32533 153.10095 37734 ft 444 kts
2026-05-08 00:26 -29.29586 153.11144 37477 ft 443 kts
2026-05-08 00:27 -29.26650 153.12185 37222 ft 441 kts
2026-05-08 00:27 -29.23721 153.13217 36968 ft 439 kts
2026-05-08 00:27 -29.20841 153.14229 36718 ft 438 kts
2026-05-08 00:27 -29.17939 153.15250 36432 ft 435 kts
2026-05-08 00:28 -29.15067 153.16266 36062 ft 430 kts
2026-05-08 00:28 -29.12263 153.17254 35615 ft 428 kts
2026-05-08 00:28 -29.09470 153.18235 35182 ft 425 kts
2026-05-08 00:28 -29.06652 153.19218 34712 ft 423 kts
2026-05-08 00:29 -29.03851 153.20194 34247 ft 422 kts
2026-05-08 00:29 -29.01050 153.21172 33731 ft 420 kts
2026-05-08 00:29 -28.98345 153.22120 33279 ft 417 kts
2026-05-08 00:29 -28.95578 153.23092 32773 ft 414 kts
2026-05-08 00:30 -28.92875 153.24041 32360 ft 411 kts
2026-05-08 00:30 -28.90150 153.24995 31914 ft 408 kts
2026-05-08 00:30 -28.87439 153.25942 31463 ft 406 kts
2026-05-08 00:30 -28.84745 153.26883 31022 ft 404 kts
2026-05-08 00:31 -28.82101 153.27804 30606 ft 403 kts
2026-05-08 00:31 -28.79424 153.28735 30168 ft 401 kts
2026-05-08 00:31 -28.76764 153.29660 29724 ft 398 kts
2026-05-08 00:31 -28.74124 153.30582 29322 ft 395 kts
2026-05-08 00:32 -28.71503 153.31498 28889 ft 393 kts
2026-05-08 00:32 -28.68941 153.32394 28544 ft 389 kts
2026-05-08 00:32 -28.66356 153.33294 28160 ft 387 kts
2026-05-08 00:32 -28.63784 153.34186 27762 ft 386 kts
2026-05-08 00:33 -28.61224 153.35069 27369 ft 384 kts
2026-05-08 00:33 -28.58669 153.35951 26969 ft 383 kts
2026-05-08 00:33 -28.56119 153.36835 26560 ft 381 kts
2026-05-08 00:33 -28.53589 153.37715 26153 ft 381 kts
2026-05-08 00:34 -28.51090 153.38581 25721 ft 380 kts
2026-05-08 00:34 -28.48565 153.39458 25301 ft 379 kts
2026-05-08 00:34 -28.46051 153.40333 24865 ft 377 kts
2026-05-08 00:34 -28.43543 153.41204 24433 ft 377 kts
2026-05-08 00:35 -28.41034 153.42071 23988 ft 377 kts
2026-05-08 00:35 -28.38527 153.42935 23507 ft 377 kts
2026-05-08 00:35 -28.36025 153.43797 23058 ft 374 kts
2026-05-08 00:35 -28.33572 153.44644 22618 ft 372 kts
2026-05-08 00:36 -28.31107 153.45497 22183 ft 370 kts 10°
2026-05-08 00:36 -28.28655 153.46347 21742 ft 367 kts 10°
2026-05-08 00:36 -28.26215 153.47190 21304 ft 365 kts 10°
2026-05-08 00:36 -28.23793 153.48026 20872 ft 363 kts 11°
2026-05-08 00:37 -28.21380 153.48859 20429 ft 362 kts 11°
2026-05-08 00:37 -28.18977 153.49674 20007 ft 358 kts
2026-05-08 00:37 -28.16551 153.50070 19586 ft 348 kts 355°
2026-05-08 00:38 -28.11882 153.49381 18781 ft 338 kts 344°
2026-05-08 00:38 -28.09570 153.48897 18352 ft 337 kts 345°
2026-05-08 00:38 -28.07268 153.48414 17922 ft 335 kts 345°
2026-05-08 00:38 -28.04984 153.47939 17524 ft 332 kts 345°
2026-05-08 00:39 -28.02721 153.47472 17129 ft 330 kts 345°
2026-05-08 00:39 -28.00472 153.47008 16740 ft 327 kts 345°
2026-05-08 00:39 -27.98238 153.46544 16354 ft 325 kts 345°
2026-05-08 00:39 -27.96017 153.46084 15972 ft 323 kts 345°
2026-05-08 00:40 -27.93841 153.45633 15599 ft 322 kts 345°
2026-05-08 00:40 -27.91644 153.45177 15227 ft 320 kts 345°
2026-05-08 00:40 -27.89458 153.44723 14855 ft 319 kts 345°
2026-05-08 00:40 -27.87277 153.44270 14481 ft 318 kts 346°
2026-05-08 00:41 -27.85100 153.43819 14113 ft 318 kts 346°
2026-05-08 00:41 -27.82928 153.43371 13680 ft 317 kts 346°
2026-05-08 00:41 -27.80759 153.42923 13305 ft 316 kts 346°
2026-05-08 00:41 -27.78598 153.42479 12916 ft 315 kts 346°
2026-05-08 00:42 -27.76447 153.42039 12547 ft 313 kts 346°
2026-05-08 00:42 -27.74336 153.41608 12173 ft 312 kts 346°
2026-05-08 00:42 -27.72201 153.41169 11801 ft 311 kts 346°
2026-05-08 00:42 -27.70073 153.40730 11424 ft 310 kts 346°
2026-05-08 00:43 -27.67952 153.40293 11047 ft 310 kts 346°
2026-05-08 00:43 -27.65831 153.39857 10677 ft 310 kts 346°
2026-05-08 00:43 -27.63743 153.39427 10306 ft 309 kts 346°
2026-05-08 00:43 -27.61636 153.38979 9910 ft 308 kts 346°
2026-05-08 00:44 -27.59535 153.38514 9622 ft 303 kts 346°
2026-05-08 00:44 -27.57480 153.38053 9060 ft 300 kts 346°
2026-05-08 00:44 -27.55491 153.37603 8635 ft 290 kts 346°
2026-05-08 00:44 -27.53516 153.37160 8280 ft 289 kts 346°
2026-05-08 00:45 -27.51541 153.36715 7928 ft 289 kts 346°
2026-05-08 00:45 -27.49569 153.36272 7574 ft 289 kts 346°
2026-05-08 00:45 -27.47594 153.35830 7220 ft 289 kts 346°
2026-05-08 00:45 -27.45614 153.35389 6844 ft 290 kts 346°
2026-05-08 00:46 -27.43658 153.34958 6676 ft 279 kts 346°
2026-05-08 00:46 -27.41840 153.34560 6549 ft 260 kts 346°
2026-05-08 00:46 -27.40125 153.34185 6420 ft 242 kts 346°
2026-05-08 00:46 -27.38504 153.33825 6209 ft 237 kts 346°
2026-05-08 00:47 -27.36859 153.33458 5605 ft 244 kts 347°
2026-05-08 00:47 -27.35222 153.33097 5309 ft 233 kts 347°
2026-05-08 00:47 -27.33650 153.32781 4996 ft 225 kts 348°
2026-05-08 00:47 -27.32139 153.32495 4719 ft 215 kts 348°
2026-05-08 00:48 -27.30695 153.32227 4491 ft 207 kts 348°
2026-05-08 00:48 -27.29311 153.31926 4259 ft 203 kts 339°
2026-05-08 00:48 -27.28110 153.31156 4028 ft 197 kts 315°
2026-05-08 00:48 -27.27333 153.30047 3807 ft 194 kts 294°
2026-05-08 00:49 -27.26942 153.28620 3534 ft 191 kts 278°
2026-05-08 00:49 -27.26714 153.27164 3312 ft 187 kts 278°
2026-05-08 00:49 -27.26680 153.25725 3028 ft 183 kts 257°
2026-05-08 00:49 -27.27127 153.24415 2781 ft 178 kts 236°
2026-05-08 00:50 -27.27794 153.23257 2550 ft 175 kts 234°
2026-05-08 00:50 -27.28441 153.22112 2324 ft 172 kts 236°
2026-05-08 00:50 -27.29054 153.21024 2103 ft 162 kts 234°
2026-05-08 00:50 -27.29631 153.19998 1906 ft 146 kts 235°
2026-05-08 00:51 -27.30154 153.19070 1727 ft 136 kts 233°
2026-05-08 00:51 -27.30655 153.18181 1547 ft 134 kts 234°
2026-05-08 00:51 -27.31209 153.17364 1384 ft 131 kts 225°
2026-05-08 00:51 -27.31884 153.16689 1227 ft 129 kts 214°
2026-05-08 00:52 -27.32658 153.16171 1061 ft 130 kts 205°
2026-05-08 00:52 -27.33440 153.15728 891 ft 131 kts 207°
2026-05-08 00:52 -27.34249 153.15268 728 ft 130 kts 207°
2026-05-08 00:52 -27.35054 153.14812 577 ft 130 kts 207°
2026-05-08 00:53 -27.35855 153.14355 422 ft 129 kts 207°
2026-05-08 00:53 -27.36661 153.13898 235 ft 130 kts 208°
2026-05-08 00:53 -27.37456 153.13436 84 ft 128 kts 208°
2026-05-08 00:53 -27.38205 153.13004 22 ft 105 kts 206°
2026-05-08 00:54 -27.38703 153.12724 23 ft 56 kts 206°
2026-05-08 00:54 -27.38903 153.12588 22 ft 23 kts 220°
2026-05-08 00:54 -27.38989 153.12477 20 ft 15 kts 234°
2026-05-08 00:54 -27.39051 153.12378 19 ft 17 kts 235°
2026-05-08 00:55 -27.39121 153.12261 20 ft 18 kts 237°
2026-05-08 00:55 -27.39129 153.12179 18 ft 11 kts 305°
2026-05-08 00:55 -27.39053 153.12157 18 ft 14 kts 24°
2026-05-08 00:55 -27.38960 153.12210 19 ft 16 kts 26°
2026-05-08 00:56 -27.38850 153.12271 18 ft 19 kts 26°
2026-05-08 00:56 -27.38730 153.12342 18 ft 20 kts 27°
2026-05-08 00:56 -27.38626 153.12401 19 ft 13 kts 26°
2026-05-08 00:56 -27.38551 153.12380 18 ft 13 kts 315°
2026-05-08 00:57 -27.38501 153.12301 18 ft 10 kts 295°
2026-05-08 00:57 -27.38492 153.12234 18 ft 9 kts 244°
2026-05-08 00:57 -27.38539 153.12181 18 ft 8 kts 226°
2026-05-08 00:57 -27.38537 153.12136 20 ft 5 kts 295°
2026-05-08 00:58 -27.38530 153.12122 19 ft 0 kts 295°